Maun, Botswana

9:49 AM CAT on February 23, 2017 (GMT +0200)
Maun

Weather History for FBMN - November, 2013

Change the Weather History Date:

Friday, November 8, 2013

  Actual Average Record
Temperature  
Mean Temperature 84 °F -  
Max Temperature 96 °F 90 °F 104 °F (1997)
Min Temperature 71 °F 69 °F 60 °F (1998)
Cooling Degree Days 18    
Growing Degree Days 34 (Base 50)    
Moisture  
Dew Point 58 °F    
Average Humidity 47    
Maximum Humidity 69    
Minimum Humidity 21    
Precipitation  
Precipitation 0.00 in - - ()
Sea Level Pressure  
Sea Level Pressure 29.97 in    
Wind  
Wind Speed 5 mph ()    
Max Wind Speed 21 mph    
Max Gust Speed -    
Visibility 6.2 miles    
Events Thunderstorm    
Averages and records for this station are not official NWS values.
T = Trace of Precipitation, MM = Missing Value Source: Averaged Metar Reports

Daily Weather History Graph

Daily Weather History Graph

Search for Another Location

Airport or City:

Trip Planner

Search our weather history database for the weather conditions in past years. The results will help you decide how hot, cold, wet, or windy it might be!

Date:

Astronomy

Nov. 08, 2013 Rise Set
Actual Time 5:41 AM CAT 6:38 PM CAT
Civil Twilight 5:18 AM CAT 7:02 PM CAT
Nautical Twilight 4:50 AM CAT 7:29 PM CAT
Astronomical Twilight 4:22 AM CAT 7:57 PM CAT
Moon 10:18 AM CAT (11/8) 11:35 PM CAT (11/8)
Length of Visible Light 13h 44m
Length of Day
12h 57m
Waxing Crescent, 30% of the Moon is Illuminated
Nov 8
Waxing Crescent
Nov 10
First Quarter
Nov 17
Full
Nov 25
Last Quarter
Dec 3
New

Hourly Weather History & Observations

Time (CAT) Temp. Heat Index Dew Point Humidity Pressure Visibility Wind Dir Wind Speed Gust Speed Precip Events Conditions
12:00 AM 78.8 °F - 57.2 °F 47% 29.95 in - ENE 4.6 mph - N/A   Clear
1:00 AM 77.0 °F - 57.2 °F 50% 29.95 in - NE 3.5 mph - N/A   Clear
2:00 AM 77.0 °F - 57.2 °F 50% 29.95 in - NE 3.5 mph - N/A   Clear
3:00 AM 75.2 °F - 57.2 °F 53% 29.95 in - Variable 2.3 mph - N/A   Clear
4:00 AM 71.6 °F - 57.2 °F 60% 29.95 in - Variable 1.2 mph - N/A   Clear
5:00 AM 73.4 °F - 57.2 °F 57% 29.95 in - Variable 2.3 mph - N/A   Clear
6:00 AM 73.4 °F - 59.0 °F 61% 29.98 in - South 4.6 mph - N/A   Clear
7:00 AM 75.2 °F - 59.0 °F 57% 30.01 in - SSE 4.6 mph - N/A   Clear
8:00 AM 80.6 °F 80.8 °F 57.2 °F 45% 30.01 in - ESE 6.9 mph - N/A   Clear
9:00 AM 86.0 °F 84.9 °F 57.2 °F 37% 30.01 in - East 3.5 mph - N/A   Clear
10:00 AM 91.4 °F 89.9 °F 57.2 °F 31% 30.01 in - SSW 5.8 mph - N/A   Clear
11:00 AM 95.0 °F 92.7 °F 53.6 °F 25% 29.98 in 6.2 mi South 4.6 mph - N/A   Partly Cloudy
12:00 PM 96.8 °F - 51.8 °F 22% 29.95 in 6.2 mi ESE 6.9 mph - N/A   Scattered Clouds
1:00 PM 91.4 °F 89.4 °F 55.4 °F 29% 29.95 in 6.2 mi North 20.7 mph - N/A Thunderstorm Thunderstorm
2:00 PM 89 °F - 55 °F 21%  in 6 mi SSW 16.1 mph - - Thunderstorm Thunderstorm
2:00 PM 87.8 °F 86.1 °F 55.4 °F 33% 29.95 in 6.2 mi SSW 16.1 mph - N/A Thunderstorm Thunderstorm
3:00 PM 80.6 °F 80.5 °F 55.4 °F 42% 29.95 in 6.2 mi SSW 13.8 mph - N/A Thunderstorm Thunderstorm
5:00 PM 80.6 °F 81.5 °F 60.8 °F 51% 29.92 in 6.2 mi NNW 4.6 mph - N/A Thunderstorm Thunderstorm
6:00 PM 77.0 °F - 62.6 °F 61% 29.92 in 6.2 mi NNE 9.2 mph - N/A Thunderstorm Thunderstorm
7:00 PM 73.4 °F - 62.6 °F 69% 29.92 in 6.2 mi NNE 8.1 mph - N/A   Scattered Clouds
8:00 PM 78.8 °F - 57.2 °F 47% 29.95 in 6.2 mi NNW 4.6 mph - N/A   Scattered Clouds
9:00 PM 77.0 °F - 60.8 °F 57% 29.98 in 6.2 mi WSW 5.8 mph - N/A   Scattered Clouds
10:00 PM 75.2 °F - 60.8 °F 61% 30.01 in 6.2 mi NNW 3.5 mph - N/A   Scattered Clouds
11:00 PM 75.2 °F - 60.8 °F 61% 30.04 in 6.2 mi NNE 6.9 mph - N/A   Scattered Clouds